User: anonymous   Login
Location: Bakersfield
(35.3730°N, 119.0180°W)
Time: 21:55:39
(UTC-07:00)
Language:

Cosmos 1222 Rocket - Orbit

View from above orbital plane
View from above orbital plane
View from above satellite
View from above satellite

Ground track
Ground track

The orbit data is extracted from the following two-line orbital elements,

1 12072U 80093B   15107.78746066  .04851286 -96348-6  53100-3 0  9993
2 12072 081.1410 301.9197 0008614 259.0042 101.0282 16.37259957893963
Epoch (UTC): 17 April 2015 18:53:56
Eccentricity: 0.0008614
inclination: 81.1410°
perigee height: 167 km
apogee height: 179 km
right ascension of ascending node: 301.9197°
argument of perigee: 259.0042°
revolutions per day: 16.37259957
mean anomaly at epoch: 101.0282°
orbit number at epoch: 89396

The dashed part of the orbit path shows where the satellite is in the earth's shadow,  

DLR